sat.trackr.live / text

‹ back to catalog

PELICAN-9

NORAD 69019 · 2026-100AR

PAYLOAD ACTIVE UNKNOWN

§ Identity

Operator
Country
US
Launch date
2026-05-03
Launch site
AFWTR
Launch vehicle
Mass (kg)
RCS (m²)

Purposes: earth_obs

External: N2YO · Heavens-Above · Gunter

§ Orbital elements

Epoch: 2026-05-25T04:26:59.990784Z

Period
94.71 min
Inclination
97.4064°
Eccentricity
0.0006751
Mean motion
15.20368956 rev/d
Perigee alt
500.1 km
Apogee alt
509.4 km
Semi-major
6,882.9 km
B*
1.2382e-4
RAAN
43.4206°
Arg perigee
102.6006°
Mean anomaly
257.5985°
Rev number
331

§ Raw data

PELICAN-91 69019U 26100AR  26145.18541656  .00002628  00000+0  12382-3 0  99942 69019  97.4064  43.4206 0006751 102.6006 257.5985 15.20368956  3313

JSON: /api/v1/satellites/69019 · /tle

For live sub-satellite position, see the globe view (requires WebGL).

§ Visibility from observer

Set your observer location to see the next 7 days of passes ≥ 10°. The values pass through the URL so the page stays shareable.

No JS? Fill the form by hand. The geolocation button needs JavaScript.